Retour au catalogue

STARLINK-30431

ActifCommunicationsVLEO
NORAD 57852·PAYLOAD·🇺🇸 United States

Lancé Sep 12, 2023 depuis Vandenberg Space Force Base

Loading…

Prochains Passages (prochaines 24 heures)

TLE

FraisSource: CelesTrak SupGP

Époque: Sep 14, 2026, 22:26 UTC

1 57852C 23141N   26257.93520833 -.00033833  00000+0 -99970-3 0  2578
2 57852  53.1582 123.6767 0001354  74.1160 243.1126 15.34403865    16

Suivez STARLINK-30431 en temps réel avec AllMySat

Download on the App Store